Change the Weather History Date:

Sunday, January 15, 2012

  Actual Average Record
Temperature  
Mean Temperature 16 °F -  
Max Temperature 28 °F 19 °F 35 °F (2000)
Min Temperature 5 °F 4 °F -20 °F (1999)
Degree Days  
Heating Degree Days 48    
Moisture  
Dew Point 14 °F    
Average Humidity 83    
Maximum Humidity 93    
Minimum Humidity 74    
Precipitation  
Precipitation 0.00 in - - ()
Sea Level Pressure  
Sea Level Pressure 30.02 in    
Wind  
Wind Speed 3 mph (SSE)    
Max Wind Speed 14 mph    
Max Gust Speed 23 mph    
Visibility 10 miles    
Events Snow    
Averages and records for this station are not official NWS values.
T = Trace of Precipitation, MM = Missing Value Source: NWS Daily Summary

Daily Weather History Graph

Daily Weather History Graph

Search for Another Location

Airport or City:

Trip Planner

Search our weather history database for the weather conditions in past years. The results will help you decide how hot, cold, wet, or windy it might be!

Date:

Astronomy

Jan. 15, 2012 Rise Set
Actual Time 7:35 AM CST 4:38 PM CST
Civil Twilight 7:01 AM CST 5:11 PM CST
Nautical Twilight 6:24 AM CST 5:48 PM CST
Astronomical Twilight 5:48 AM CST 6:24 PM CST
Moon No Moon Rise 10:26 AM CST (1/15)
Length of Visible Light 10h 09m
Length of Day
9h 03m
Waning Gibbous, 57% of the Moon is Illuminated
Jan 15
Waning Gibbous
Jan 16
Last Quarter
Jan 23
New
Jan 30
First Quarter
Feb 7
Full

Hourly Weather History & Observations

Time (CST) Temp. Windchill Dew Point Humidity Pressure Visibility Wind Dir Wind Speed Gust Speed Precip Events Conditions
12:15 AM 5.0 °F - 3.2 °F 92% 30.08 in 10.0 mi Calm Calm - N/A Snow Light Snow
12:35 AM 6.8 °F - 3.2 °F 85% 30.08 in 10.0 mi Calm Calm - N/A Snow Light Snow
12:55 AM 6.8 °F - 3.2 °F 85% 30.08 in 10.0 mi Calm Calm - N/A Snow Light Snow
1:15 AM 6.8 °F - 3.2 °F 85% 30.08 in 10.0 mi Calm Calm - N/A Snow Light Snow
1:35 AM 6.8 °F - 3.2 °F 85% 30.08 in 10.0 mi Calm Calm - N/A   Overcast
1:55 AM 8.6 °F - 3.2 °F 79% 30.08 in 10.0 mi Calm Calm - N/A   Overcast
2:15 AM 8.6 °F - 3.2 °F 79% 30.09 in 10.0 mi Calm Calm - N/A   Overcast
2:35 AM 8.6 °F - 5.0 °F 85% 30.09 in 10.0 mi Calm Calm - N/A   Overcast
2:55 AM 8.6 °F - 5.0 °F 85% 30.09 in 10.0 mi Calm Calm - N/A Snow Light Snow
3:35 AM 10.4 °F - 6.8 °F 85% 30.08 in 10.0 mi Calm Calm - N/A   Overcast
3:55 AM 10.4 °F - 6.8 °F 85% 30.08 in 10.0 mi Calm Calm - N/A   Overcast
4:15 AM 10.4 °F - 6.8 °F 85% 30.08 in 10.0 mi Calm Calm - N/A   Overcast
4:35 AM 12.2 °F - 8.6 °F 85% 30.08 in 10.0 mi Calm Calm - N/A   Overcast
4:55 AM 12.2 °F - 8.6 °F 85% 30.08 in 10.0 mi Calm Calm - N/A   Overcast
5:15 AM 12.2 °F 6.1 °F 8.6 °F 85% 30.08 in 10.0 mi South 3.5 mph - N/A   Overcast
5:35 AM 12.2 °F - 8.6 °F 85% 30.08 in 10.0 mi Calm Calm - N/A   Overcast
5:55 AM 12.2 °F - 8.6 °F 85% 30.09 in 10.0 mi Calm Calm - N/A   Overcast
6:15 AM 12.2 °F - 8.6 °F 85% 30.09 in 10.0 mi Calm Calm - N/A   Overcast
6:35 AM 12.2 °F 6.1 °F 8.6 °F 85% 30.10 in 10.0 mi South 3.5 mph - N/A   Overcast
6:55 AM 14.0 °F - 8.6 °F 79% 30.10 in 10.0 mi Calm Calm - N/A   Overcast
7:15 AM 14.0 °F - 10.4 °F 86% 30.10 in 10.0 mi Calm Calm - N/A   Overcast
7:35 AM 14.0 °F - 10.4 °F 86% 30.09 in 10.0 mi Calm Calm - N/A   Overcast
7:55 AM 14.0 °F - 10.4 °F 86% 30.10 in 10.0 mi Calm Calm - N/A   Overcast
8:15 AM 14.0 °F 8.2 °F 10.4 °F 86% 30.10 in 10.0 mi South 3.5 mph - N/A   Overcast
8:35 AM 14.0 °F 6.5 °F 10.4 °F 86% 30.10 in 10.0 mi South 4.6 mph - N/A   Overcast
8:55 AM 15.8 °F 10.2 °F 12.2 °F 86% 30.10 in 10.0 mi South 3.5 mph - N/A   Overcast
9:15 AM 17.6 °F - 12.2 °F 79% 30.10 in 10.0 mi Calm Calm - N/A   Overcast
9:35 AM 17.6 °F 12.3 °F 12.2 °F 79% 30.10 in 7.0 mi South 3.5 mph - N/A   Overcast
9:55 AM 17.6 °F 10.7 °F 14.0 °F 86% 30.11 in 7.0 mi South 4.6 mph - N/A   Overcast
10:15 AM 19.4 °F 14.3 °F 14.0 °F 80% 30.10 in 5.0 mi SSE 3.5 mph - N/A   Overcast
10:35 AM 19.4 °F 12.8 °F 15.8 °F 86% 30.09 in 7.0 mi South 4.6 mph - N/A   Overcast
10:55 AM 19.4 °F 12.8 °F 17.6 °F 93% 30.09 in 7.0 mi South 4.6 mph - N/A   Overcast
11:15 AM 21.2 °F 14.9 °F 17.6 °F 86% 30.07 in 10.0 mi SSE 4.6 mph - N/A   Mostly Cloudy
11:35 AM 23.0 °F 17.0 °F 17.6 °F 80% 30.06 in 10.0 mi SSE 4.6 mph - N/A   Scattered Clouds
12:35 PM 26.6 °F 20.0 °F 19.4 °F 74% 30.03 in 10.0 mi South 5.8 mph - N/A   Overcast
12:55 PM 26.6 °F 19.1 °F 19.4 °F 74% 30.03 in 10.0 mi South 6.9 mph - N/A   Overcast
1:15 PM 26.6 °F 17.5 °F 21.2 °F 80% 30.02 in 10.0 mi South 9.2 mph - N/A   Overcast
1:35 PM 28.4 °F 20.4 °F 21.2 °F 74% 30.01 in 10.0 mi South 8.1 mph - N/A   Overcast
1:55 PM 26.6 °F 19.1 °F 21.2 °F 80% 30.00 in 10.0 mi South 6.9 mph - N/A   Overcast
2:15 PM 26.6 °F 18.2 °F 21.2 °F 80% 29.99 in 7.0 mi SSE 8.1 mph - N/A   Overcast
2:35 PM 26.6 °F 17.5 °F 21.2 °F 80% 29.97 in 7.0 mi SSE 9.2 mph 16.1 mph N/A   Mostly Cloudy
2:55 PM 26.6 °F 19.1 °F 21.2 °F 80% 29.96 in 7.0 mi SSE 6.9 mph 17.3 mph N/A   Scattered Clouds
3:15 PM 26.6 °F 17.5 °F 21.2 °F 80% 29.96 in 10.0 mi SSE 9.2 mph - N/A   Clear
3:35 PM 26.6 °F 18.2 °F 19.4 °F 74% 29.96 in 10.0 mi South 8.1 mph - N/A   Clear
3:55 PM 26.6 °F 17.5 °F 19.4 °F 74% 29.95 in 10.0 mi SSE 9.2 mph - N/A   Scattered Clouds
4:15 PM 24.8 °F 16.9 °F 19.4 °F 80% 29.94 in 10.0 mi SE 6.9 mph - N/A   Clear
4:35 PM 24.8 °F 17.9 °F 19.4 °F 80% 29.93 in 10.0 mi SSE 5.8 mph - N/A   Scattered Clouds
4:55 PM 23.0 °F 14.7 °F 19.4 °F 86% 29.92 in 10.0 mi SE 6.9 mph - N/A   Scattered Clouds
5:15 PM 23.0 °F 13.9 °F 19.4 °F 86% 29.91 in 10.0 mi SSE 8.1 mph 16.1 mph N/A   Mostly Cloudy
5:35 PM 23.0 °F 12.4 °F 19.4 °F 86% 29.90 in 10.0 mi SSE 10.4 mph 17.3 mph N/A   Scattered Clouds
5:55 PM 23.0 °F 12.4 °F 19.4 °F 86% 29.90 in 10.0 mi SSE 10.4 mph 17.3 mph N/A   Mostly Cloudy
6:15 PM 23.0 °F 13.1 °F 19.4 °F 86% 29.89 in 10.0 mi SSE 9.2 mph 16.1 mph N/A   Overcast
6:35 PM 23.0 °F 12.4 °F 19.4 °F 86% 29.88 in 10.0 mi SSE 10.4 mph 18.4 mph N/A   Overcast
6:55 PM 23.0 °F 11.7 °F 19.4 °F 86% 29.88 in 7.0 mi SSE 11.5 mph 19.6 mph N/A   Overcast
7:35 PM 23.0 °F 11.1 °F 19.4 °F 86% 29.85 in 7.0 mi SSE 12.7 mph 23.0 mph N/A   Scattered Clouds
7:55 PM 23.0 °F 11.7 °F 21.2 °F 93% 29.86 in 10.0 mi South 11.5 mph 20.7 mph N/A   Clear
8:35 PM 24.8 °F 14.6 °F 21.2 °F 86% 29.85 in 10.0 mi South 10.4 mph 19.6 mph N/A   Scattered Clouds
8:55 PM 24.8 °F 12.9 °F 21.2 °F 86% 29.85 in 10.0 mi South 13.8 mph 20.7 mph N/A   Scattered Clouds
9:15 PM 26.6 °F 15.2 °F 21.2 °F 80% 29.86 in 10.0 mi South 13.8 mph 21.9 mph N/A   Mostly Cloudy
9:55 PM 26.6 °F 16.8 °F 21.2 °F 80% 29.85 in 10.0 mi South 10.4 mph 19.6 mph N/A   Overcast
10:15 PM 26.6 °F 15.7 °F 21.2 °F 80% 29.84 in 10.0 mi South 12.7 mph 20.7 mph N/A   Overcast
10:35 PM 26.6 °F 15.2 °F 21.2 °F 80% 29.83 in 10.0 mi South 13.8 mph 19.6 mph N/A   Overcast
10:55 PM 26.6 °F 16.2 °F 21.2 °F 80% 29.82 in 7.0 mi South 11.5 mph 17.3 mph N/A   Overcast
11:15 PM 26.6 °F 15.7 °F 21.2 °F 80% 29.82 in 7.0 mi South 12.7 mph 19.6 mph N/A   Overcast
11:35 PM 26.6 °F 16.8 °F 21.2 °F 80% 29.81 in 7.0 mi South 10.4 mph 19.6 mph N/A   Overcast
11:55 PM 26.6 °F 16.8 °F 21.2 °F 80% 29.80 in 7.0 mi South 10.4 mph 20.7 mph N/A   Overcast